This demonstration page uses our WeatherBlox Daily Observations layout. Learn more.

Left ArrowRight Arrow

Hourly Observations for July 12, 2022

Temp ( °F °C ) Dew Point ( °F °C ) Humidity (%) Winds ( mph kmh ) Pressure ( in mb ) Visibility ( mi km ) Precip ( " mm )
12:53 am 00:53 Clear 57 13.9 42 5.6 58 58 ENE 3 6 29.99 1016 10 16 0.00 0.00
1:53 am 01:53 Clear 51 10.6 42 5.6 71 71 WSW 3 6 30.02 1017 10 16 0.00 0.00
2:53 am 02:53 Clear 49 9.4 40 4.4 71 71 ESE 3 6 30.01 1016 10 16 0.00 0.00
3:53 am 03:53 Clear 49 9.4 39 3.9 69 69 SSW 5 7 30.02 1017 10 16 0.00 0.00
4:53 am 04:53 Clear 47 8.3 38 3.3 71 71 Calm 30.03 1017 10 16 0.00 0.00
5:53 am 05:53 Sunny 45 7.2 37 2.8 74 74 Calm 30.05 1018 10 16 0.00 0.00
6:53 am 06:53 Sunny 51 10.6 42 5.6 71 71 Calm 30.06 1018 10 16 0.00 0.00
7:53 am 07:53 Sunny 57 13.9 42 5.6 58 58 Calm 30.07 1018 10 16 0.00 0.00
8:53 am 08:53 Sunny 65 18.3 44 6.7 47 47 Calm 30.06 1018 10 16 0.00 0.00
9:53 am 09:53 Sunny 74 23.3 46 7.8 37 37 Calm 30.06 1018 10 16 0.00 0.00
10:53 am 10:53 Sunny 81 27.2 38 3.3 21 21 NW 5 7 30.05 1018 10 16 0.00 0.00
11:53 am 11:53 Sunny 85 29.4 38 3.3 19 19 VRB 5 7 30.03 1017 10 16 0.00 0.00
12:53 pm 12:53 Sunny 90 32.2 35 1.7 14 14 VRB 3 6 30.00 1016 10 16 0.00 0.00
1:53 pm 13:53 Sunny 91 32.8 32 0 12 12 N 7 11 29.99 1016 10 16 0.00 0.00
2:53 pm 14:53 Sunny 93 33.9 33 0.6 12 12 undefined N/A 29.96 1015 10 16 0.00 0.00
3:53 pm 15:53 Sunny 92 33.3 31 -0.6 11 11 VRB 5 7 29.95 1014 10 16 0.00 0.00
4:53 pm 16:53 Sunny 89 31.7 30 -1.1 12 12 SSE 7 11 29.95 1014 10 16 0.00 0.00
5:53 pm 17:53 Sunny 92 33.3 28 -2.2 10 10 W 8 13 29.93 1013 10 16 0.00 0.00
6:53 pm 18:53 Sunny 90 32.2 27 -2.8 10 10 Calm 29.90 1013 10 16 0.00 0.00
7:53 pm 19:53 Sunny 82 27.8 50 10 33 33 Calm 29.91 1013 10 16 0.00 0.00
8:53 pm 20:53 Clear 70 21.1 40 4.4 34 34 Calm 29.93 1014 10 16 0.00 0.00
9:53 pm 21:53 Clear 69 20.6 35 1.7 29 29 VRB 3 6 29.94 1014 10 16 0.00 0.00
10:53 pm 22:53 Clear 63 17.2 44 6.7 50 50 SE 3 6 29.96 1015 10 16 0.00 0.00
11:53 pm 23:53 Clear 62 16.7 45 7.2 54 54 E 3 6 29.97 1015 10 16 0.00 0.00

Powered by AerisWeather